Location: Unspecified
(0.0000°N, 0.0000°E)
Time: 19:48:05
(UTC+00:00)

COSMOS 2491 DEB - Visible Passes

Search period start: 14 January 2025 00:00
Search period end: 24 January 2025 00:00
Orbit: 1250 x 1525 km, 82.4° (Epoch: 13 January)

Date Brightness Start Highest point End Pass type
(mag) Time Alt. Az. Time Alt. Az. Time Alt. Az.
14 Jan ? 22:23:41 10° SSW 22:25:00 16° SSW 22:25:00 16° SSW visible
15 Jan ? 21:06:14 10° SSE 21:08:13 19° SSE 21:08:13 19° SSE visible
16 Jan ? 21:42:20 10° S 21:45:04 24° S 21:45:04 24° S visible
17 Jan ? 20:26:25 10° SSE 20:28:21 16° SE 20:28:21 16° SE visible
17 Jan ? 22:19:48 10° SSW 22:21:57 19° SW 22:21:57 19° SW visible
18 Jan ? 21:01:31 10° S 21:05:15 29° SSE 21:05:15 29° SSE visible
19 Jan ? 19:47:50 10° SE 19:48:35 12° ESE 19:48:35 12° ESE visible
19 Jan ? 21:38:05 10° SSW 21:42:13 32° SSW 21:42:13 32° SSW visible
20 Jan ? 20:21:16 10° SSE 20:25:35 28° SE 20:25:35 28° SE visible
20 Jan ? 22:16:05 10° SW 22:19:12 20° SW 22:19:12 20° SW visible
21 Jan ? 20:56:56 10° S 21:02:37 47° S 21:02:37 47° S visible
22 Jan ? 19:41:49 10° SE 19:46:05 21° ESE 19:46:05 21° ESE visible
22 Jan ? 21:33:56 10° SSW 21:39:42 39° SW 21:39:42 39° SW visible
23 Jan ? 20:16:18 10° SSE 20:23:13 47° ESE 20:23:13 47° ESE visible
23 Jan ? 22:12:40 10° SW 22:16:51 20° WSW 22:16:51 20° WSW visible
